Regional Weather Roundup
Issued by NWS Charleston, SC

Current Version | Previous Version | Graphics & Text | Print | Product List | Glossary On
Versions: 1 2 3 4 5 6 7 8 9 10 11 12 13 14 15 16 17 18 19 20 21 22 23 24 25 26 27 28 29 30 31 32 33 34 35 36 37 38 39 40 41 42 43 44 45 46 47 48 49 50
981 ASUS42 KCHS 080812 RWRCHS REGIONAL WEATHER ROUNDUP NATIONAL WEATHER SERVICE CHARLESTON SC 300 AM EST THU DEC 08 2016 NOTE: "FAIR" INDICATES FEW OR NO CLOUDS BELOW 12,000 FEET WITH NO SIGNIFICANT WEATHER AND/OR OBSTRUCTIONS TO VISIBILITY. NOT ALL STATIONS ARE QUALITY CONTROLLED. USE DATA WITH CAUTION... ESPECIALLY DEWPOINT OBSERVATIONS. SCZ027-030-031-034>040-042>050-080900- ...SOUTHEAST SOUTH CAROLINA... CITY SKY/WX TMP DP RH WIND PRES REMARKS N CHARLESTON CLOUDY 54 51 90 CALM 30.07S WATERFRONT PRK N/A 56 55 97 CALM 30.07S MOUNT PLEASANT NOT AVBL JOHNS ISLAND CLOUDY 55 54 94 CALM 30.08S PINOPOLIS N/A 54 54 100 VRB2 30.00R MONCKS CORNER CLOUDY 52 52 100 CALM 30.08S SUMMERVILLE CLOUDY N/A N/A N/A CALM 30.08F BEAUFORT MCAS CLOUDY 56 54 93 CALM 30.08S BEAUFORT ARPT CLOUDY 55 54 94 CALM 30.07S HILTON HEAD IS MOCLDY 57 57 100 VRB3 30.09R WALTERBORO CLOUDY 55 N/A N/A CALM 30.08S ALLENDALE CLOUDY 55 54 94 CALM 30.07S FOG ...SOUTHERN MIDLANDS AND PEE DEE... CITY SKY/WX TMP DP RH WIND PRES REMARKS GEORGETOWN CLOUDY 48 48 100 CALM 30.09R FOG KINGSTREE CLOUDY 52 48 87 CALM 30.07F ORANGEBURG CLOUDY 53 52 96 SW3 30.07 BARNWELL NOT AVBL AIKEN FOG 50 50 100 SW5 30.10S VSB 3/4 MANNING CLOUDY 52 50 93 CALM 30.07F COLUMBIA CLOUDY 52 50 93 CALM 30.05F SUMTER CLOUDY 51 49 93 CALM 30.04F FLORENCE CLOUDY 52 50 93 SW5 30.06F MYRTLE BEACH CLOUDY 50 46 87 W3 30.09S N MYRTLE BEACH CLOUDY 48 48 100 CALM 30.06S FOG $$ GAZ063-065-086>088-099>101-113>116-118-119-134>141-150-080900- ...SOUTHEAST GEORGIA... CITY SKY/WX TMP DP RH WIND PRES REMARKS SAVANNAH ARPT CLOUDY 56 50 80 W9 30.09S HUNTER AAF CLOUDY 56 55 97 W8 30.07R FORT STEWART PTCLDY 53 49 86 CALM 30.08R STATESBORO CLOUDY 50 50 100 CALM 30.09S SYLVANIA PTSUNNY N/A N/A N/A W3 30.09S CLAXTON PTSUNNY 51 51 100 CALM 30.10S ...CSRA...CENTRAL AND FAR SOUTHEAST GEORGIA... CITY SKY/WX TMP DP RH WIND PRES REMARKS THOMSON N/A 46 46 100 CALM 30.12F VSB 1/2 AUGUSTA-BUSH CLOUDY 54 51 90 NW6 30.07S AUGUSTA-DANIEL CLOUDY 52 49 89 W5 30.07F SWAINSBORO CLOUDY 52 46 82 W3 30.10S VIDALIA CLOUDY 54 52 94 CALM 30.10S EASTMAN CLOUDY 55 40 56 NW5 30.14R HAZLEHURST CLOUDY 56 50 80 NW3 30.10S ALMA CLOUDY 54 49 83 VRB3 30.11R WAYCROSS CLOUDY 53 53 100 N3 30.12R JESUP PTSUNNY 50 50 100 CALM 30.11S FOG BAXLEY CLOUDY 55 54 94 W3 30.11R BRUNSWICK PTCLDY 52 52 100 W3 30.11S FOG SAINT SIMONS PTCLDY 55 51 86 NW5 30.10 $$ SCZ027-028-034-036>038-045-046-048>050-GAZ119-141-080900- ...LAKE AND SUPPLEMENTAL COASTAL OBSERVATIONS... STATION/POSITION TIME TEMP WIND PRES WAVE SWELL AIR SEA DIR/SP/G HT/PER HT/PER/DIR (UTC) (F) (DEG/KT/KT) (MB) (FT/S) (FT/S/D) WINYAH BAY 0645 48 310/ 2 1018.0 LAKE MURRAY 0720 53 260/ 5/ 7 1017.6 ACE BASIN NERRS 0645 54 CALM 1018.0 FORT PULASKI 0748 58 62 300/ 13/ 14 1018.7R SAPELO ISLAND 0700 57 310/ 7 1019.0 $$ ANZ835-935-AMZ111-154-330-350-352-354-370-450-454-472-080900- ...C-MAN AND BUOY OBSERVATIONS... STATION/POSITION TIME TEMP WIND PRES WAVE SWELL AIR SEA DIR/SP/G HT/PER HT/PER/DIR (UTC) (F) (DEG/KT/KT) (MB) (FT/S) (FT/S/D) BUOY 41004 0750 62 74 290/ 4/ 6 1017.9 2/ 7 2/120/ 7 BUOY 41008 0750 59 65 300/ 12/ 16 1018.2 2/11 2/ 40/11 FOLLY BEACH CMAN 0800 56 20/ 3/ 3 1018.9S CAPERS NEARSHORE 0708 56 61 340/ 4/ 8 1018.1F FRIPP NEARSHORE 0708 61 62 60/ 4/ 4 1017.7F STATION/POSITION TIME TEMP WIND PRES WAVE SWELL AIR SEA DIR/SP/G HT/PER HT/PER/DIR (UTC) (F) (DEG/KT/KT) (MB) (FT/S) (FT/S/D) 5E ST. MARYS GA 0800 66 N/A 2/13 FRYING PAN BUOY 0750 62 74 300/ 4/ 8 1017.5 3/ 7 3/160/ 7 BUOY 41025 0750 54 78 360/ 8/ 10 1018.0 6/10 5/ 60/10 CAPE LOOKOUT NC NOT AVBL BUOY 41002 0750 71 73 290/ 10/ 12 1017.2 6/ 7 5/310/ 7 BUOY 41010 NOT AVBL ST AUGUSTINE FL 0800 56 67 310/ 6/ 8 1020.2R $$

USA.gov is the U.S. government's official web portal to all federal, state and local government web resources and services.